Location: Unspecified
(35.7250°N, 0.0000°E)
Time: 04:00:45
(UTC+00:00)

Explorer 7 - Pass Details

Date: 20 June 2019
Orbit: 485 x 680 km, 50.3° (Epoch: 18 July)

Event Time Altitude Azimuth Distance (km) Brightness Sun altitude
Rises 11:50:36 0° 297° (WNW) 2,880 10.4 77.5°
Reaches altitude 10° 11:53:58 10° 324° (NW) 2,019 9.7 77.6°
Maximum altitude 11:56:23 14° 355° (N) 1,800 9.5 77.7°
Drops below altitude 10° 11:58:51 10° 26° (NNE) 2,071 9.8 77.7°
Sets 12:02:24 0° 52° (NE) 3,011 10.5 77.7°
